Akron, CO

8:49 AM MDT on October 20, 2017 (GMT -0600)
Akron-Washington County

Weather History for KAKO - October, 2012

Change the Weather History Date:

Sunday, October 28, 2012

  Actual Average Record
Temperature  
Mean Temperature 48 °F 46 °F  
Max Temperature 60 °F 59 °F 82 °F (2016)
Min Temperature 36 °F 33 °F 11 °F (1991)
Degree Days  
Heating Degree Days 17    
Month to date heating degree days 493  
Cooling Degree Days 0    
Month to date cooling degree days 0  
Moisture  
Dew Point 27 °F    
Average Humidity 49    
Maximum Humidity 70    
Minimum Humidity 27    
Precipitation  
Precipitation 0.00 in 0.03 in 0.19 in (1967)
Month to date precipitation 0.62 1.04  
Year to date precipitation 7.72 15.69  
Sea Level Pressure  
Sea Level Pressure 30.06 in    
Wind  
Wind Speed 10 mph (SSW)    
Max Wind Speed 22 mph    
Max Gust Speed 25 mph    
T = Trace of Precipitation, MM = Missing Value Source: NWS Daily Summary

Daily Weather History Graph

Daily Weather History Graph

Search for Another Location

Airport or City:

Trip Planner

Search our weather history database for the weather conditions in past years. The results will help you decide how hot, cold, wet, or windy it might be!

Date:

Astronomy

Oct. 28, 2012 Rise Set
Actual Time 7:18 AM MDT 5:54 PM MDT
Civil Twilight 6:50 AM MDT 6:22 PM MDT
Nautical Twilight 6:18 AM MDT 6:54 PM MDT
Astronomical Twilight 5:46 AM MDT 7:25 PM MDT
Moon 5:13 PM MDT (10/28) 6:13 AM MDT (10/28)
Length of Visible Light 11h 31m
Length of Day
10h 35m
Waxing Gibbous, 99% of the Moon is Illuminated
Oct 28
Waxing Gibbous
Oct 29
Full
Nov 6
Last Quarter
Nov 13
New
Nov 20
First Quarter

Hourly Weather History & Observations

Time (MDT) Temp. Windchill Dew Point Humidity Pressure Visibility Wind Dir Wind Speed Gust Speed Precip Events Conditions
12:53 AM 39.0 °F 30.6 °F 23.0 °F 53% 30.14 in - SSW 15.0 mph - N/A   Overcast
1:53 AM 37.9 °F 30.9 °F 25.0 °F 60% 30.13 in - SSW 10.4 mph - N/A   Overcast
2:53 AM 39.0 °F 31.4 °F 26.1 °F 60% 30.12 in - SSW 12.7 mph - N/A   Overcast
3:53 AM 37.9 °F 30.9 °F 23.0 °F 55% 30.11 in - South 10.4 mph - N/A   Overcast
4:53 AM 39.0 °F 31.4 °F 21.9 °F 50% 30.11 in - South 12.7 mph - N/A   Overcast
5:53 AM 37.9 °F 30.0 °F 24.1 °F 57% 30.12 in - South 12.7 mph - N/A   Overcast
6:53 AM 36.0 °F 30.3 °F 26.1 °F 67% 30.14 in - SSW 6.9 mph - N/A   Overcast
7:53 AM 37.0 °F 31.0 °F 26.1 °F 65% 30.14 in - SW 8.1 mph - N/A   Overcast
8:53 AM 39.0 °F 32.3 °F 25.0 °F 57% 30.13 in - SW 10.4 mph - N/A   Mostly Cloudy
9:53 AM 45.0 °F 38.9 °F 25.0 °F 46% 30.11 in - SW 12.7 mph - N/A   Partly Cloudy
11:53 AM 55.0 °F - 26.1 °F 33% 30.04 in - SW 18.4 mph 25.3 mph N/A   Clear
1:53 PM 57.9 °F - 25.0 °F 28% 29.98 in - SW 10.4 mph - N/A   Clear
2:53 PM 60.1 °F - 26.1 °F 27% 29.96 in - WSW 8.1 mph - N/A   Clear
3:53 PM 60.1 °F - 27.0 °F 28% 29.97 in - WSW 10.4 mph - N/A   Clear
4:53 PM 57.9 °F - 32.0 °F 37% 29.98 in - Calm Calm - N/A   Mostly Cloudy
5:53 PM 55.0 °F - 33.1 °F 43% 30.00 in - Calm Calm - N/A   Overcast
6:53 PM 53.1 °F - 28.9 °F 40% 30.03 in - Calm Calm - N/A   Mostly Cloudy
7:53 PM 53.1 °F - 28.0 °F 38% 30.04 in - SE 3.5 mph - N/A   Partly Cloudy
8:53 PM 48.9 °F - 30.0 °F 48% 30.05 in - South 5.8 mph - N/A   Clear
9:53 PM 46.0 °F 42.5 °F 28.9 °F 51% 30.05 in - SSW 6.9 mph - N/A   Clear
10:53 PM 44.1 °F 39.0 °F 28.9 °F 55% 30.04 in - SW 9.2 mph - N/A   Clear
11:53 PM 44.1 °F 37.7 °F 30.0 °F 58% 30.03 in - SW 12.7 mph - N/A   Clear